TimeCST,TemperatureF,Dew PointF,Humidity,Sea Level PressureIn,VisibilityMPH,Wind Direction,Wind SpeedMPH,Gust SpeedMPH,PrecipitationIn,Events,Conditions,WindDirDegrees,DateUTC
12:53 AM,48.9,15.1,26,29.80,10.0,NW,16.1,23.0,N/A,,Clear,320,2013-02-10 06:53:00
1:53 AM,48.9,14.0,25,29.80,10.0,NW,15.0,21.9,N/A,,Clear,310,2013-02-10 07:53:00
2:53 AM,46.9,14.0,27,29.81,10.0,NW,12.7,-,N/A,,Clear,310,2013-02-10 08:53:00
3:53 AM,46.0,12.9,26,29.80,10.0,NW,18.4,21.9,N/A,,Clear,310,2013-02-10 09:53:00
4:53 AM,45.0,12.9,27,29.81,10.0,WNW,13.8,-,N/A,,Clear,300,2013-02-10 10:53:00
5:53 AM,42.1,14.0,32,29.84,10.0,WNW,9.2,-,N/A,,Clear,300,2013-02-10 11:53:00
6:53 AM,39.9,15.1,36,29.86,10.0,WNW,9.2,-,N/A,,Clear,300,2013-02-10 12:53:00
7:53 AM,41.0,16.0,36,29.89,10.0,WNW,6.9,-,N/A,,Clear,290,2013-02-10 13:53:00
8:53 AM,44.1,17.1,34,29.92,10.0,NW,6.9,-,N/A,,Clear,320,2013-02-10 14:53:00
9:53 AM,48.9,16.0,27,29.93,10.0,NW,10.4,-,N/A,,Clear,310,2013-02-10 15:53:00
10:53 AM,52.0,14.0,22,29.93,10.0,NW,10.4,-,N/A,,Clear,320,2013-02-10 16:53:00
11:53 AM,55.0,14.0,20,29.91,10.0,NW,10.4,-,N/A,,Clear,310,2013-02-10 17:53:00
12:53 PM,57.0,14.0,18,29.89,10.0,Variable,6.9,-,N/A,,Clear,0,2013-02-10 18:53:00
1:53 PM,57.9,14.0,18,29.84,10.0,NNW,9.2,18.4,N/A,,Clear,330,2013-02-10 19:53:00
2:53 PM,61.0,14.0,16,29.83,10.0,North,9.2,-,N/A,,Clear,350,2013-02-10 20:53:00
3:53 PM,62.1,12.9,15,29.82,10.0,NW,8.1,-,N/A,,Clear,320,2013-02-10 21:53:00
4:53 PM,62.1,12.0,14,29.83,10.0,Variable,5.8,-,N/A,,Clear,0,2013-02-10 22:53:00
5:53 PM,59.0,10.9,15,29.84,10.0,North,4.6,-,N/A,,Clear,360,2013-02-10 23:53:00
6:53 PM,55.0,12.0,18,29.87,10.0,ENE,3.5,-,N/A,,Clear,60,2013-02-11 00:53:00
7:53 PM,51.1,14.0,23,29.90,10.0,ESE,3.5,-,N/A,,Clear,120,2013-02-11 01:53:00
8:53 PM,48.0,15.1,27,29.92,10.0,SSE,6.9,-,N/A,,Clear,160,2013-02-11 02:53:00
9:53 PM,46.0,16.0,30,29.93,10.0,South,8.1,-,N/A,,Clear,170,2013-02-11 03:53:00
10:53 PM,46.9,18.0,32,29.93,10.0,South,5.8,-,N/A,,Clear,170,2013-02-11 04:53:00
11:53 PM,46.0,19.0,34,29.93,10.0,South,9.2,-,N/A,,Clear,170,2013-02-11 05:53:00